Regional Weather Roundup
Issued by NWS

Home | Current Version | Previous Version | Text Only | Print | Product List | Glossary Off
Versions: 1 2 3 4 5 6 7 8 9 10 11 12 13 14 15 16 17 18 19 20 21 22 23 24 25 26 27

000
ASUS45 KBOU 090107
RWRCO

WEATHER ROUNDUP FOR COLORADO
NATIONAL WEATHER SERVICE DENVER/BOULDER CO
600 PM MST THU DEC 08 2016

NOTE: "FAIR" INDICATES FEW OR NO CLOUDS BELOW 12000 FEET WITH NO
SIGNIFICANT WEATHER AND/OR OBSTRUCTIONS TO VISIBILITY.

COZ001>005-013-030-031-090200-
...NORTHWEST COLORADO...

CITY           SKY/WX    TMP DP  RH WIND       PRES   REMARKS
CRAIG          CLOUDY    19  12  74 E10       30.19F WCI   7
HAYDEN         CLOUDY    14   9  79 E9        30.19F WCI   2
MEEKER         CLOUDY    25  16  68 CALM      30.18S
MOUNT WERNER   NOT AVBL
STEAMBOAT SPGS CLOUDY    11   8  88 CALM      30.19S VSB 1
WALDEN           N/A     16   9  73 SE7       30.12F WCI   6
$$

COZ006>008-011-090200-
...WEST CENTRAL VALLEYS...

CITY           SKY/WX    TMP DP  RH WIND       PRES   REMARKS
GRAND JUNCTION CLOUDY    28  10  46 W3        30.27R
MONTROSE       CLOUDY    28  10  46 CALM      30.28R
EAGLE          FLURRIES  18  10  73 CALM      30.25S
RIFLE          NOT AVBL
DELTA          NOT AVBL
NUCLA          CLOUDY    32   9  37 CALM      30.29R
$$

COZ017>023-064>068-090200-
...SOUTHWEST COLORADO...

CITY           SKY/WX    TMP DP  RH WIND       PRES   REMARKS
DURANGO        CLOUDY    31   9  39 E5        30.29R WCI  26
CORTEZ         FAIR      29  18  63 CALM      30.28R
PAGOSA SPRINGS CLOUDY    28  12  50 CALM      30.29R
TELLURIDE      CLOUDY    28  17  63 E3        30.25R
WOLF CREEK PAS FAIR       9   3  78 SW20G25   30.26R WCI -11
$$

COZ009-010-012-014-032>034-037-058>063-090200-
...CENTRAL COLORADO...

CITY           SKY/WX    TMP DP  RH WIND       PRES   REMARKS
ASPEN          NOT AVBL
BUENA VISTA    CLOUDY    29  11  46 SE6       30.14R WCI  23
COPPER MTN     LGT SNOW  18  10  73 MISG      30.07S VSB 1
BERTHOUD PASS  LGT SNOW   7  -6  56 W21G32    30.01R WCI -13
COTTONWOOD PAS FLURRIES  25  12  58 W13G24    30.10R WCI  13
GUNNISON       LGT SNOW  16  11  80 CALM      30.28R
KREMMLING      LGT SNOW  14   9  79 CALM      30.21F
LEADVILLE      LGT SNOW  16  12  84 NE7       30.09R VSB 3/4 WCI   6
MONARCH PASS   LGT SNOW  10   7  85 W31       30.23S VSB 3/4 WCI -12
SALIDA         CLOUDY    32  11  42 SW9       30.22F WCI  24
SUNLIGHT       LGT SNOW  12  10  92 SW20G31   30.14R WCI  -6
WILKERSON PASS CLOUDY    14   5  67 SW18G25   30.07R WCI  -3
$$

COZ069>075-090200-
...SAN LUIS VALLEY/SANGRE DE CRISTO MOUNTAINS...

CITY           SKY/WX    TMP DP  RH WIND       PRES   REMARKS
ALAMOSA        FAIR      19   7  59 CALM      30.22S
LA VETA PASS   FAIR      19   9  63 NE24G38   30.14S WCI   2
SAGUACHE       CLOUDY    21   0  39 CALM      30.24R
$$

COZ035-036-038>040-090200-
...NORTHERN COLORADO FRONT RANGE...

CITY           SKY/WX    TMP DP  RH WIND       PRES   REMARKS
DENVER INTL AP MOCLDY     8   3  80 N5        30.26S WCI   0
DMNS CITY PARK   N/A     10   4  76 NE6       30.27S WCI   0
AURORA         MOCLDY     6   3  89 NE6       30.25F WCI  -5
FRONT RANGE AP MOCLDY     9   3  78 CALM      30.27S
ERIE MUNI ARPT FAIR       8   6  89 CALM      30.30S
BOULDER MUN AP FAIR       9   3  78 CALM      30.28S
CENTENNIAL     MOCLDY    10   6  84 N5        30.23S WCI   2
BROOMFIELD     MOCLDY     9   3  78 N5        30.25F WCI   0
FORT COLLINS   FAIR       9   3  78 CALM      30.31S
LONGMONT       FAIR      10   4  75 CALM      30.32F
$$

COZ041-046-047-076>085-087-088-090200-
...PIKES PEAK/PALMER DIVIDE AND SOUTHERN FOOTHILLS...

CITY           SKY/WX    TMP DP  RH WIND       PRES   REMARKS
COLO. SPRINGS  LGT SNOW  11   7  84 S6        30.28R FOG     WCI   1
A. F. ACADEMY  CLOUDY     9   5  85 SE10      30.23S WCI  -6
SCHRIEVER AFB  NOT AVBL
ELLICOTT       CLOUDY   N/A N/A N/A S7          N/A
FALCON         LGT SNOW   9   7  91 SW8       30.23S WCI  -3
FORT CARSON    LGT SNOW  13   8  77 S7        30.28S WCI   3
LIMON          FAIR       8   0  69 S12       30.31F WCI  -7
MONUMENT HILL  FAIR       5   1  85 S14       30.18F WCI -12
TRINIDAD       FAIR      20   9  62 NW10      30.27R WCI   9
$$

COZ042>045-048>051-090-091-090200-
...NORTHEAST COLORADO...

CITY           SKY/WX    TMP DP  RH WIND       PRES   REMARKS
GREELEY ARPT   FAIR      10   4  76 N3        30.33F
AKRON          FAIR       4  -2  76 SE9       30.35F WCI -10
BURLINGTON     FAIR      10   1  67 SE8       30.43F WCI  -2
WRAY           FAIR       9   1  72 E3        30.46F
STERLING       FAIR      10   1  67 CALM      30.38F
HOLYOKE        FAIR       5   0  78 SE8       30.45F WCI  -8
FORT MORGAN    FAIR       7   1  79 NE7       30.35S WCI  -5
$$

COZ086-089-092>099-090200-
...SOUTHEAST COLORADO...

CITY           SKY/WX    TMP DP  RH WIND       PRES   REMARKS
PUEBLO         CLOUDY    18   7  62 E5        30.34F WCI  11
LA JUNTA       FAIR      21   5  50 SE14      30.37F WCI   8
LAMAR          NOT AVBL
SPRINGFIELD      N/A     18   2  49 SE15      30.41S WCI   4
$$




USA.gov is the U.S. government's official web portal to all federal, state and local government web resources and services.